| time (UTC) | temp F | wind direction | speed knots | gust knots | rain 1hr in | rain 24hr in | rain mn in | humidity % | barometer mb |
| 20260504081804 | 65 | 135 | 2.6 | 3.5 | 0.00 | 0.00 | 0.00 | 100 | 1022.6 |
| 20260504045805 | 57 | 315 | 0.9 | 1.7 | 0.00 | 0.00 | 0.00 | 100 | 1021.8 |
| 20260504040802 | 52 | 315 | 1.7 | 3.5 | 0.00 | 0.00 | 0.00 | 100 | 1021.4 |
| 20260504035802 | 52 | 292 | 1.7 | 3.5 | 0.00 | 0.00 | 0.00 | 100 | 1021.0 |
| 20260504033804 | 52 | 315 | 2.6 | 3.5 | 0.00 | 0.00 | 0.00 | 100 | 1021.2 |
| 20260504031803 | 52 | 0 | 1.7 | 1.7 | 0.00 | 0.00 | 0.00 | 100 | 1021.0 |
| 20260504024802 | 52 | 315 | 0.0 | 0.0 | 0.00 | 0.00 | 0.00 | 100 | 1021.0 |
| 20260504020802 | 52 | 225 | 0.9 | 1.7 | 0.00 | 0.00 | 0.00 | 100 | 1021.7 |
| 20260504015804 | 52 | 90 | 0.9 | 1.7 | 0.00 | 0.00 | 0.00 | 100 | 1021.5 |
| 20260504011804 | 53 | 315 | 0.0 | 0.9 | 0.00 | 0.00 | 0.00 | 100 | 1021.7 |
| 20260504005801 | 53 | 315 | 1.7 | 1.7 | 0.00 | 0.00 | 0.00 | 100 | 1021.5 |
| 20260504003804 | 53 | 315 | 0.9 | 1.7 | 0.00 | 0.00 | 0.00 | 100 | 1021.4 |
| 20260503235802 | 53 | 141 | 1.7 | 1.7 | 0.00 | 0.00 | 0.00 | 100 | 1021.7 |
| 20260503234803 | 53 | 315 | 0.0 | 0.0 | 0.00 | 0.00 | 0.00 | 100 | 1021.8 |
| 20260503233803 | 53 | 0 | 0.0 | 0.9 | 0.00 | 0.00 | 0.00 | 100 | 1021.8 |
| 20260503225803 | 53 | 0 | 1.7 | 2.6 | 0.00 | 0.00 | 0.00 | 100 | 1021.9 |
| 20260503223802 | 54 | 0 | 2.6 | 3.5 | 0.00 | 0.00 | 0.00 | 100 | 1022.0 |
| 20260503221804 | 54 | 141 | 0.9 | 1.7 | 0.00 | 0.00 | 0.00 | 100 | 1022.2 |
| 20260503213717 | 54 | 315 | 1.7 | 1.7 | 0.00 | 0.00 | 0.00 | 100 | 1021.9 |
| 20260503212716 | 54 | 0 | 1.7 | 2.6 | 0.00 | 0.00 | 0.00 | 100 | 1021.9 |
| 20260503211714 | 54 | 315 | 0.9 | 1.7 | 0.00 | 0.00 | 0.00 | 100 | 1021.8 |
| 20260503204714 | 55 | 135 | 0.9 | 1.7 | 0.00 | 0.00 | 0.00 | 100 | 1021.7 |
| 20260503194710 | 55 | 315 | 1.7 | 1.7 | 0.00 | 0.00 | 0.00 | 100 | 1021.7 |
| 20260503191710 | 56 | 0 | 3.5 | 4.3 | 0.00 | 0.00 | 0.00 | 100 | 1021.4 |
| 20260503184708 | 57 | 225 | 2.6 | 3.5 | 0.00 | 0.00 | 0.00 | 100 | 1021.0 |
| 20260503183707 | 57 | 158 | 1.7 | 2.6 | 0.00 | 0.00 | 0.00 | 100 | 1021.1 |
| 20260503181705 | 58 | 0 | 1.7 | 2.6 | 0.00 | 0.00 | 0.00 | 100 | 1021.3 |
| 20260503180706 | 58 | 90 | 0.9 | 1.7 | 0.00 | 0.00 | 0.00 | 100 | 1021.1 |
| 20260503174704 | 58 | 315 | 3.5 | 4.3 | 0.00 | 0.00 | 0.00 | 100 | 1020.8 |
| 20260503173704 | 59 | 270 | 2.6 | 3.5 | 0.00 | 0.00 | 0.00 | 100 | 1020.8 |
| 20260503171703 | 60 | 270 | 1.7 | 3.5 | 0.00 | 0.00 | 0.00 | 100 | 1020.5 |
| 20260503170704 | 60 | 270 | 5.2 | 7.0 | 0.00 | 0.00 | 0.00 | 100 | 1020.5 |